Content
SEND FEEDBACK

Daily
Averages
Monthly
Summary
Canada

QUEBEC CITY, QUEBEC


Home > North America > Canada > Quebec
Elevation: 239 feet     Latitude: 46 48N     Longitude: 071 23W

WEATHER
 
SELECT A DAY
Number of Records: 192,085;   Date Range: 6/30/96 - 7/28/14
 
SHARE

PRINT THIS DATA

[ ← Previous Day ]
WEATHER ALMANAC - JANUARY 17, 2013
[ Next Day → ]
[ °C ]   °F
Weather ElementAverageHighLow
Temperature15.1 °F32 °F (1:00 am)-7.6 °F (11:00 pm)
Dewpoint-1 °F28 °F (4:00 am)-22 °F (7:00 pm)
Humidity54.1 %86 % (5:00 am)26 % (4:00 pm)
Wind Speed14.8 mph44.9 mph (6:10 am)
Wind Gust35.7 mph (5:46 am)
Weather ElementAverage
Visibility16.1 mi
Wind DirectionNW (315.7 °)

Weather ElementTotal
Precipitation---
Heating Degree Days52.8 (Base 65)
Averaged from 39 records on January 17, 2013
WEATHER CONDITIONS BREAKOUT
WIND DIRECTION BREAKOUT
WEATHER BY HOUR - JANUARY 17, 2013
[ °C ]   °F
Local TimeTemperatureDewpointHumidityBarometerVisibilityWind DirectionWind SpeedGust SpeedPrecipitationEventsConditions
1:00 AM32.0 °F27.0 °F76 %29.65 inSW (230°)6.9 mph
1:00 AM32.0 °F24.8 °F75 %29.66 in15.0 miSW (230°)15.0 mph20.7 mphOvercast
2:00 AM32.0 °F24.8 °F75 %29.64 in15.0 miSW (230°)15.0 mphOvercast
2:23 AM32.0 °F0.0 °F10.0 miSW (230°)15.0 mphSnowLight Snow
3:00 AM32.0 °F24.8 °F75 %29.63 in12.0 miWSW (240°)13.8 mphSnowLight Snow
4:00 AM32.0 °F28.0 °F78 %29.62 inWSW (240°)10.4 mph
4:00 AM32.0 °F24.8 °F75 %29.62 in10.0 miWSW (240°)17.3 mph23.0 mphSnowLight Snow
4:20 AM30.2 °F0.0 °F3.0 miWSW (240°)18.4 mphSnowLight Snow
4:39 AM30.2 °F0.0 °F1.5 miSW (230°)19.6 mph28.8 mphSnowLight Snow
5:00 AM30.2 °F26.6 °F86 %29.62 in2.5 miSW (230°)20.7 mphSnowLight Snow
5:15 AM30.2 °F0.0 °F4.0 miSW (230°)20.7 mphSnowLight Snow
5:46 AM30.2 °F0.0 °F2.5 miSW (230°)27.6 mph35.7 mphSnowLight Snow Showers
6:00 AM30.2 °F26.6 °F86 %29.62 in2.5 miSW (230°)24.2 mph32.2 mphSnowLight Snow Showers
6:10 AM26.6 °F0.0 °F0.0 mi29.9 (2013°)44.9 mph0.00 inHeavy Snow Showers300
6:30 AM24.8 °F0.0 °F2.0 miNW (320°)17.3 mph33.4 mphSnowLight Snow Showers
6:40 AM23.0 °F0.0 °F4.0 miNW (320°)23.0 mph28.8 mphSnowLight Snow Showers
7:00 AM24.0 °F17.0 °F64 %29.70 inNW (310°)19.6 mph
7:00 AM21.2 °F14.0 °F74 %29.71 in15.0 miWest (280°)20.7 mph32.2 mphOvercast
8:00 AM21.2 °F10.4 °F63 %29.77 in30.0 miWest (260°)18.4 mph24.2 mphMostly Cloudy
9:00 AM14.0 °F1.4 °F57 %29.86 in30.0 miWNW (300°)15.0 mph21.9 mphPartly Cloudy
10:00 AM11.0 °F-3.0 °F37 %29.93 inNW (320°)13.8 mph
10:00 AM10.4 °F-2.2 °F57 %29.93 in30.0 miWNW (290°)16.1 mph21.9 mphPartly Cloudy
11:00 AM8.6 °F-7.6 °F48 %29.98 in30.0 miWest (280°)17.3 mphPartly Cloudy
12:00 PM8.6 °F-13.0 °F37 %30.02 in30.0 miWest (280°)11.5 mph20.7 mphPartly Cloudy
1:00 PM7.0 °F-10.0 °F29 %30.05 inWest (280°)13.8 mph
1:00 PM6.8 °F-13.0 °F40 %30.05 in30.0 miWNW (290°)15.0 mph20.7 mphPartly Cloudy
2:00 PM6.8 °F-13.0 °F40 %30.09 in30.0 miWNW (300°)10.4 mph18.4 mphPartly Cloudy
3:00 PM5.0 °F-14.8 °F40 %30.12 in30.0 miWest (270°)12.7 mphPartly Cloudy
4:00 PM3.2 °F-18.4 °F36 %30.14 in30.0 miNW (320°)15.0 mphPartly Cloudy
4:00 PM2.0 °F-16.0 °F26 %30.14 inWest (280°)15.0 mph
5:00 PM-0.4 °F-16.6 °F46 %30.17 in20.0 miWest (270°)6.9 mphPartly Cloudy
6:00 PM-2.2 °F-20.2 °F42 %30.19 in20.0 miSW (230°)4.6 mphClear
7:00 PM-4.0 °F-16.0 °F38 %30.22 inWSW (240°)4.6 mph
7:00 PM-4.0 °F-22.0 °F42 %30.22 in20.0 miWSW (240°)10.4 mphClear
8:00 PM-5.8 °F-20.2 °F50 %30.23 in20.0 miWest (270°)3.5 mphClear
9:00 PM-5.8 °F-22.0 °F46 %30.25 in20.0 miWNW (300°)5.8 mphClear
10:00 PM-6.0 °F-17.0 °F43 %30.23 inNNW (340°)6.9 mph
10:00 PM-5.8 °F-22.0 °F46 %30.23 in15.0 miNNW (340°)6.9 mphClear
11:00 PM-7.6 °F-22.0 °F50 %30.20 in15.0 miNNW (340°)4.6 mphClear
Hourly data recorded from CYQB, located miles away from Quebec City, Quebec







STORIES FROM OUR PARTNERS